www.pogodaiklimat.ru
Время
и дата
08:53 19.07
09:53 19.07
10:53 19.07
11:53 19.07
12:53 19.07
13:53 19.07
14:53 19.07
15:53 19.07
16:53 19.07
17:53 19.07
18:53 19.07
19:53 19.07
20:53 19.07
21:53 19.07
22:53 19.07
23:53 19.07
00:53 20.07
01:53 20.07
02:53 20.07
03:53 20.07
04:53 20.07
05:53 20.07
06:53 20.07
07:53 20.07
08:53 20.07
09:53 20.07
10:53 20.07
11:53 20.07
12:53 20.07
13:53 20.07
14:53 20.07
15:53 20.07
16:53 20.07
17:53 20.07
18:53 20.07
19:53 20.07
20:53 20.07
21:53 20.07
22:53 20.07
23:53 20.07
00:53 21.07
01:53 21.07
02:53 21.07
03:53 21.07
04:53 21.07
05:53 21.07
06:53 21.07
07:53 21.07
Ветер
(напр.,м/с)
Видим. Явления Облачность Т
(С)
Тd
(С)
f
(%)
Тe
(С)
Тes
(С)
Комфортность P
(гПа)
Po
(гПа)
Тmin
(С)
Tmax
(С)
R
(мм)
R24
(мм)
S
(см)
нст 2 16 км 2/0 3000 m
[Ac]
+30.6 +14.4 37 +32 +39 жарко 1014.3 1002.7
штиль 0 16 км 5/0 3000 m
[Ac]
+32.8 +14.4 33 +34 +45 очень
жарко
1014.0 1002.3 +24.4 +32.8
штиль 0 16 км 5/2 1500 m
[Ac]
+35.0 +13.9 28 +36 +49 очень
жарко
1013.8 1002.0
ЮЗ 3 16 км 2/2 1500 m
[Ac]
+36.1 +13.3 26 +37 +50 душно 1013.2 1001.3
ЮЗ 3
{7}
16 км 5/2 1500 m
[Ac]
+38.3 +11.1 20 +37 +48 очень
жарко
1012.5 1001.0
СЗ 2 16 км 8/2 1500 m
[Ac]
+38.3 +11.1 20 +37 +45 очень
жарко
1012.3 1000.7
З 4 16 км 8/0 2100 m
[Ac]
+38.3 +11.1 20 +37 +42 очень
жарко
1011.4 999.7
СЗ 5 16 км 8/0 2100 m
[Ac]
+38.3 +12.2 21 +38 +41 очень
жарко
1010.7 999.0 +32.8 +38.9
СЗ 4 16 км 8/0 2100 m
[Ac]
+38.9 +12.8 21 +39 +41 очень
жарко
1010.2 998.7
З 5 16 км 8/0 2100 m
[Ac]
+37.8 +13.3 23 +38 +39 очень
жарко
1010.3 998.7
СЗ 5 16 км 8/0 2100 m
[Ac]
+36.1 +12.2 24 +36 +36 очень
жарко
1010.5 998.7
СЗ 3 16 км 8/0 2100 m
[Ac]
+35.0 +13.3 27 +35 +35 очень
жарко
1010.8 999.0
СЗ 4 16 км 5/0 3900 m
[Ac]
+33.9 +14.4 31 +35 +35 очень
жарко
1011.2 999.7
СЗ 3 16 км 5/0 3900 m
[Ac]
+32.8 +13.9 32 +34 +34 очень
жарко
1010.9 999.3 +32.8 +38.9
СЗ 3 16 км 2/0 5700 m
[Ac]
+31.7 +14.4 35 +33 +33 жарко 1010.8 999.3
СЗ 4 16 км ясно +30.6 +15.6 40 +33 +33 душно 1010.6 999.0
СЗ 4 16 км ясно +29.4 +13.9 39 +31 +31 жарко 1010.4 999.0
З 2 16 км ясно +28.3 +14.4 43 +31 +31 душно 1010.2 998.7
штиль 0 16 км 2/0 3600 m
[Ac]
+28.3 +13.3 40 +30 +30 жарко 1010.3 998.7
штиль 0 16 км 2/0 3600 m
[Ac]
+27.8 +12.2 38 +29 +29 жарко 1010.7 999.0 +27.8 +32.8
ЮВ 2 16 км 5/0 3600 m
[Ac]
+26.7 +13.3 44 +29 +29 жарко 1011.3 999.7
В 2 16 км 2/0 3600 m
[Ac]
+26.7 +15.6 51 +30 +30 душно 1011.9 1000.3
В 3 13 км 2/2 1500 м +26.7 +17.8 58 1012.4
В 3 13 км 5/5 1500 м +28.9 +17.8 51 1012.5
Ю 4 16 км 5/5 1500 м +32.2 +15.6 37 1012.3
Ю 2 16 км 2/2 1500 м +33.9 +12.2 27 1011.8 +25.6 +34.4
СЗ 3 16 км 2/2 1500 m
[Ac]
+36.1 +11.1 22 1011.4
ЮЗ 3 16 км 2/0 3600 m
[Ac]
+38.3 +8.3 16 1011.1
З 3 16 км 2/0 3600 m
[Ac]
+38.9 +7.2 15 +37 +51 опасность
солнечного
удара
1010.4 999.0
З 3 16 км 2/0 3600 m
[Ac]
+40.0 +8.3 15 +38 +52 опасность
солнечного
удара
1009.8 998.3
ЮЗ 4 16 км 2/0 3600 m
[Ac]
+40.6 +9.4 15 +39 +48 очень
жарко
1009.2 997.7
СЗ 2 16 км 5/0 3000 m
[Ac]
+41.1 +10.0 16 +40 +48 очень
жарко
1008.5 997.0 +33.9 +41.1
З 3 16 км 5/0 3000 m
[Ac]
+40.6 +11.7 18 +40 +44 очень
жарко
1008.2 996.7
СЗ 4 16 км 5/0 3000 m
[Ac]
+40.6 +11.1 17 +39 +41 очень
жарко
1008.1 996.7
СЗ 6 16 км 8/0 3600 m
[Ac]
+37.8 +11.7 21 +37 +37 очень
жарко
1008.6 997.0
СЗ 5 16 км 8/0 3600 m
[Ac]
+35.6 +13.3 26 +36 +36 очень
жарко
1009.1 997.3
СЗ 6 16 км 8/0 3600 m
[Ac]
+33.3 +16.1 36 +36 +36 очень
душно
1009.8 998.0
СЗ 6 16 км 8/0 3600 m
[Ac]
+31.1 +16.1 40 +34 +34 душно 1009.9 998.3 +31.1 +41.7
СЗ 6 16 км ясно +30.0 +13.9 37 +32 +32 жарко 1009.8 998.3
СЗ 6 16 км ясно +28.3 +13.3 40 +30 +30 жарко 1009.8 998.3
СЗ 5 16 км ясно +27.2 +12.8 41 +29 +29 жарко 1009.7 998.0
СЗ 4 16 км ясно +26.1 +12.2 42 +28 +28 жарко 1010.0 998.3
СЗ 4 16 км ясно +25.0 +12.2 45 +27 +27 жарко 1010.2 998.7
СЗ 4 16 км ясно +24.4 +11.7 45 +26 +26 жарко 1010.4 998.7 +24.4 +31.1
СЗ 3 16 км 2/2 1500 м +23.9 +11.7 46 +25 +25 комфорт 1010.8 999.0
СЗ 4 16 км ясно +23.9 +11.7 46 +25 +25 комфорт 1011.1 999.3
СЗ 4 16 км 2/0 2250 m
[Ac]
+25.0 +11.7 43 +26 +27 жарко 1011.7 1000.0
СЗ 2 16 км 2/0 2550 m
[Ac]
+26.7 +12.2 41 +28 +31 жарко 1011.8 1000.0
Местоположение метеостанции Fresno Air Terminal: широта 36.7800 долгота -119.7194 высота над уровнем моря 101 м.
В архиве по умолчанию представлена погода в Фресно за последние 1-2 суток. Обновление информации о фактической погоде в базе происходит ежечасно! Архивные данные за месяц целиком и за предыдущие месяцы Вы можете получить, выбрав интересующий диапазон дат из раскрывающегося списка и нажав кнопку "Ввод!".
Внимание! Архив погоды МЕТАР в базе сайта по станциям, не включенным в климатический монитор, хранится не более 60 дней. Нет смысла пытаться выбрать более раннюю дату.
*Определитесь, кто Вы:
Внимание! Время в таблицах - местное (без учета летнего времени). Для получения всемирного времени необходимо вычесть поправку, которая равна -8 ч.
Смотрите также архив погоды в соседних городах и на ближайших метеорологических станциях:
Партнеры нашего сайта:      
Пояснения к столбцам:
  • Ветер - указаны скорость ветра в м/с - средняя за 10 мин, порывы в срок и между сроками (в фигурных скобках) и направление, откуда дует ветер: С - северный,
  • СВ - северо-восточный, В - восточный, ЮВ - юго-восточный, Ю - южный, ЮЗ - юго-западный, З - западный, СЗ - северо-западный.
  • Видимость - горизонтальная дальность видимости в метрах или километрах. При видимости от 1 до 10 км при отсутствии осадков обычно наблюдается дымка, при ухудшении видимости до 1 км и менее - туман. В сухую погоду видимость может ухудшаться дымом, пылью или мглою.
  • Явления - указаны атмосферные явления, наблюдавшиеся в срок или в последний час перед сроком; фигурными скобками обозначены явления, наблюдавшиеся между сроками (за 1-3 часа до срока); квадратными скобками обозначены град или гололедные отложения с указанием их диаметра в мм.
  • Облачность - указаны через наклонную черту общая и нижняя облачность в баллах и высота нижней границы облаков в метрах; квадратными скобками обозначены формы облаков: Ci - перистые, Cs - перисто-слоистые, Cc - перисто-кучевые, Ac - высококучевые, As - высокослоистые, Sc - слоисто-кучевые, Ns - слоисто-дождевые, Cu - кучевые, Cb - кучево-дождевые. Подробнее классификацию облаков см. в Атласе облаков (PDF).
  • T - Температура воздуха - температура, измеренная на высоте 2 м над землей.
  • Td - Температура точки росы - температура, при понижении до которой содержащийся в воздухе водяной пар достигнет насыщения.
  • f - Относительная влажность воздуха - влажноcть воздуха, измеренная на высоте 2 м над землей.
  • Te - Эффективная температура - температура, которую ощущает одетый по сезону человек в тени. Характеристика душности погоды. При расчете учитывается влияние влажности воздуха и скорости ветра на теплоощущения человека.
  • Tes - Эффективная температура на солнце - температура, которую ощущает человек, с поправкой на солнечный нагрев. Характеристика знойности погоды. Зависит от высоты солнца над горизонтом, облачности и скорости ветра. Ночью, в пасмурную погоду, а также при ветре 12 м/с и более поправка равна нулю.
  • P - Атмосферное давление - приведенное к уровню моря атмосферное давление.
  • Po - Атмосферное давление - измеренное на уровне метеостанции атмосферное давление.
  • Tmin - Минимальная температура - минимум температуры воздуха на высоте 2 м над землей.
  • Tmax - Максимальная температура - максимум температуры воздуха на высоте 2 м над землей.
  • R - Количество осадков - Количество выпавших осадков за период времени, мм. При наведении курсора мыши на число - период времени, за который выпало указанное количество осадков.
  • R24 - Количество осадков - Количество выпавших осадков за 24 часа, мм.
  • S - Снежный покров - Высота снежного покрова, см. При наведении курсора мыши на число - состояние снежного покрова и степень покрытия местности в баллах.